[[{"header":{"parameterUnit":"m.s-1","parameterCategory":1,"la1":30.2991,"la2":30.254,"lo1":-89.0895,"lo2":-89.0444,"dy":0.0017,"dx":0.0017,"nx":28,"ny":28,"refTime":"2024-02-16T03:00:00:Z","depth":0,"parameterNumber":2,"parameterNumberName":"U-component_of_WINDS"},"data":[0,0,0,0,0,0,0,0,0,0,0,0,0,0,0,0,0,0,0,0,0,0,0,0,0,0,0,0,0,0,0,0,0,0,0,0,0,0,0,0,0,0,0,0,0,0,0,0,0,0,0,0,0,0,0,0,0,0,1.9934,1.9935,0,2.003,2.0031,2.0032,2.0041,2.004,2.0039,2.0038,2.0134,2.0137,2.0141,0,0,0,0,0,0,0,0,0,0,0,0,0,1.9753,1.9757,1.9934,1.9935,1.9936,2.003,2.0031,2.0033,2.0041,2.004,2.0038,2.0037,2.0133,2.0137,2.0141,0,0,0,0,0,0,0,0,0,0,0,0,0,1.9839,1.9758,1.9933,1.9952,1.9954,2.003,2.0031,2.0033,2.0041,2.004,2.0038,2.0037,2.0131,2.0136,2.0141,2.0205,0,0,2.0158,2.016,0,0,0,0,0,0,0,0,1.9834,1.9845,1.9948,1.995,1.9954,2.0022,2.0003,2.0091,2.0042,2.0008,2.0038,2.0036,2.0098,2.0105,2.0127,2.0209,2.0213,2.0158,2.0161,2.0163,2.0165,0,0,0,0,0,0,0,1.9828,1.9841,1.9972,1.9949,1.9953,1.9954,1.9964,2.002,2.006,2.0011,2.0012,2.0023,2.0099,2.0122,2.0129,2.0215,2.0158,2.0163,2.0166,2.0168,2.0353,2.0355,0,0,0,0,0,0,1.9819,1.9836,1.9969,1.9975,1.9889,1.9958,1.997,2.0001,2.006,2.0067,2.0024,2.0023,2.0114,2.0123,2.0133,2.021,2.0163,2.0168,2.0171,2.0351,2.0353,2.0355,0,0,0,0,0,0,1.9815,1.9831,1.9965,1.9906,1.9923,1.9963,1.9998,2.0004,2.0027,2.007,2.0077,2.0041,2.0113,2.0125,2.0187,2.0213,2.0171,2.0176,2.0349,2.0352,2.0354,2.0365,0,0,0,0,0,0,1.981,1.9829,1.9855,1.9906,1.9926,2.0018,2.0,2.0007,2.0037,2.0036,2.0087,2.0094,2.0112,2.0179,2.0192,2.022,2.018,2.0347,2.035,2.0353,2.0362,2.0368,2.0372,0,0,0,0,0,1.9804,1.9853,1.9856,1.9872,1.9959,2.002,2.0031,2.0052,2.0039,2.0064,2.0091,2.0092,2.0208,2.0185,2.02,2.023,2.0345,2.0349,2.0353,2.036,2.0367,2.0372,0,0,0,0,0,0,1.9803,1.986,1.9864,1.9932,1.9971,2.0021,2.0053,2.0058,2.0101,2.0099,2.0123,2.0134,2.0194,2.0218,2.0191,2.0294,2.0275,2.0282,2.0276,2.0282,2.0287,2.0279,2.0184,0,0,0,0,0,1.981,1.9856,1.9904,1.996,1.9979,2.0013,2.004,2.0054,2.0094,2.0111,2.0143,2.0181,2.0227,2.0256,2.03,2.0366,2.0377,2.0394,2.0399,2.0403,2.0408,2.0444,2.0452,2.0368,2.0368,2.0368,0,0,1.9827,1.9864,1.9891,1.996,1.9992,2.0038,2.0027,2.0076,2.011,2.0118,2.0178,2.0203,2.0248,2.0312,2.0341,2.0333,2.0434,2.0408,2.041,2.0414,2.0449,2.0457,2.0464,2.0371,2.037,2.037,0,0,1.988,1.9913,1.9963,1.9995,2.0044,2.0066,2.0078,2.0128,2.0144,2.0206,2.0212,2.0253,2.033,2.0362,2.0388,2.0453,2.0455,2.0467,2.0492,2.0526,2.0533,2.0539,2.0561,2.0569,2.0472,2.0472,2.0472,0,1.9894,1.9964,1.9987,2.0037,2.0066,2.0077,2.0126,2.0156,2.0216,2.0236,2.0227,2.0324,2.0355,2.0426,2.0442,2.0463,2.0476,2.046,2.053,2.0536,2.0542,2.0564,2.0572,2.0473,2.0473,2.0473,2.0473,0,1.9978,2.0027,2.0061,2.012,2.0153,2.0202,2.0232,2.0263,2.0273,2.0296,2.0357,2.0395,2.0447,2.0465,2.0475,2.0537,2.0531,2.0526,2.0507,2.0551,2.0571,2.058,2.0475,2.0474,2.0474,2.0474,0,0,2.0033,2.0104,2.0116,2.0142,2.0197,2.0235,2.0284,2.0335,2.0361,2.0402,2.0443,2.0508,2.0504,2.0534,2.0547,2.0578,2.0626,2.0569,2.057,2.0577,2.0696,2.0698,2.0707,2.0628,2.063,2.0631,2.0691,0,2.0091,2.018,2.0202,2.0278,2.0322,2.0333,2.0376,2.0413,2.0436,2.0476,2.0501,2.0547,2.0538,2.0556,2.0587,2.0614,2.065,2.061,2.0665,2.0667,2.0652,2.0718,2.0721,2.0776,2.07,2.0701,2.0702,0,2.0171,2.0214,2.0294,2.0343,2.0362,2.0401,2.0449,2.0488,2.053,2.0545,2.0578,2.0589,2.0639,2.062,2.0689,2.0661,2.0685,2.0702,2.0704,2.0709,2.0686,2.0724,2.0794,2.0802,2.0715,2.0714,2.0713,0,2.0201,2.028,2.0338,2.036,2.0418,2.0445,2.047,2.0511,2.054,2.0582,2.0601,2.0649,2.0674,2.071,2.0733,2.0717,2.08,2.0782,2.0812,2.0811,2.0828,2.0826,2.0902,2.0845,2.0845,2.0845,2.0845,0,2.0263,2.0311,2.0352,2.0387,2.0441,2.0466,2.0519,2.0544,2.0581,2.062,2.0633,2.0669,2.0698,2.0738,2.0756,2.081,2.0822,2.0834,2.0838,2.0832,2.0831,2.0847,2.0844,2.0847,2.0847,2.0846,2.0846,0,2.0305,2.0335,2.0398,2.0448,2.0462,2.05,2.0542,2.0576,2.06,2.065,2.0663,2.0699,2.0747,2.0774,2.0834,2.0846,2.0906,2.0909,2.0892,2.0893,2.0921,2.0918,2.1009,2.1022,2.0958,2.0959,2.0959,0,2.0342,2.0379,2.0434,2.0462,2.0488,2.0533,2.0563,2.0589,2.062,2.0671,2.0699,2.0748,2.0788,2.0865,2.0895,2.0941,2.0945,2.0974,2.0951,2.0944,2.0943,2.094,2.0944,2.0977,2.0977,2.0978,2.0978,0,2.0404,2.0417,2.0461,2.0509,2.0545,2.0585,2.0624,2.0645,2.0678,2.0711,2.0761,2.0793,2.0855,2.0903,2.0952,2.0976,2.0982,2.0985,2.0994,2.0988,2.0976,2.0982,2.0901,2.0983,2.0982,2.0982,2.0982,2.0982,2.0444,2.0477,2.0521,2.0569,2.0601,2.0638,2.0672,2.07,2.0743,2.0796,2.0808,2.0861,2.0901,2.0967,2.0994,2.1034,2.1028,2.1042,2.1045,2.1048,2.1048,2.0971,2.1043,2.1043,2.1043,2.1043,2.1043,0,2.0506,2.0534,2.0578,2.0633,2.067,2.0675,2.0718,2.0748,2.0795,2.0833,2.0873,2.093,2.0977,2.1011,2.1059,2.1085,2.1088,2.1096,2.1094,2.1099,2.1051,2.1038,2.1092,2.1092,2.1092,2.1092,2.1092,2.1092,2.0542,2.0599,2.0617,2.0689,2.0717,2.077,2.0794,2.0827,2.0857,2.0921,2.096,2.0983,2.102,2.107,2.1113,2.1122,2.1138,2.1145,2.1154,2.1108,2.1103,2.1097,2.1085,2.1149,2.1149,2.1199,2.1199,2.12]},{"header":{"parameterUnit":"m.s-1","parameterCategory":1,"la1":30.2991,"la2":30.254,"lo1":-89.0895,"lo2":-89.0444,"dy":0.0017,"dx":0.0017,"nx":28,"ny":28,"refTime":"2024-02-16T03:00:00:Z","depth":0,"parameterNumber":3,"parameterNumberName":"V-component_of_WINDS"},"data":[0,0,0,0,0,0,0,0,0,0,0,0,0,0,0,0,0,0,0,0,0,0,0,0,0,0,0,0,0,0,0,0,0,0,0,0,0,0,0,0,0,0,0,0,0,0,0,0,0,0,0,0,0,0,0,0,0,0,2.9055,2.9055,0,2.9086,2.9086,2.9086,2.9041,2.9039,2.9038,2.9036,2.9064,2.9066,2.9069,0,0,0,0,0,0,0,0,0,0,0,0,0,2.8954,2.8956,2.9055,2.9055,2.9056,2.9086,2.9086,2.9086,2.9041,2.9039,2.9037,2.9035,2.9063,2.9066,2.9069,0,0,0,0,0,0,0,0,0,0,0,0,0,2.8992,2.8957,2.9055,2.9037,2.9036,2.9086,2.9086,2.9087,2.9041,2.9039,2.9037,2.9034,2.9063,2.9066,2.9069,2.9137,0,0,2.9079,2.9081,0,0,0,0,0,0,0,0,2.899,2.8996,2.9039,2.9038,2.9037,2.9057,2.9061,2.9103,2.9042,2.9039,2.9036,2.9033,2.9063,2.9067,2.9077,2.9139,2.914,2.908,2.9082,2.9083,2.9084,0,0,0,0,0,0,0,2.8988,2.8994,2.9067,2.904,2.9038,2.9026,2.9029,2.9068,2.9064,2.9039,2.9036,2.904,2.9062,2.9074,2.9078,2.914,2.9079,2.9082,2.9085,2.9086,2.9258,2.926,0,0,0,0,0,0,2.8988,2.8993,2.9066,2.9068,2.9007,2.903,2.9033,2.9053,2.9064,2.9063,2.9042,2.9038,2.907,2.9074,2.9079,2.9158,2.9083,2.9086,2.9088,2.9255,2.9258,2.9261,0,0,0,0,0,0,2.8986,2.8995,2.9065,2.9029,2.9037,2.9034,2.9057,2.9055,2.9067,2.9066,2.9065,2.9056,2.9068,2.9074,2.9123,2.9159,2.9088,2.9091,2.9252,2.9256,2.926,2.9319,0,0,0,0,0,0,2.8983,2.8994,2.9021,2.903,2.904,2.911,2.9059,2.9057,2.9073,2.9068,2.9078,2.9078,2.9067,2.9118,2.9126,2.9162,2.9093,2.9249,2.9254,2.9259,2.9314,2.9325,2.9334,0,0,0,0,0,2.8979,2.9036,2.9022,2.9032,2.9073,2.9112,2.9117,2.9104,2.9076,2.9102,2.9102,2.9077,2.9154,2.9124,2.9132,2.917,2.9247,2.9253,2.9258,2.931,2.9323,2.9334,0,0,0,0,0,0,2.9029,2.9037,2.9022,2.9083,2.9098,2.9104,2.9137,2.9119,2.914,2.9134,2.9117,2.9119,2.9172,2.9176,2.9142,2.9236,2.9195,2.9203,2.9231,2.9244,2.9253,2.9251,2.9096,0,0,0,0,0,2.9048,2.908,2.9084,2.9138,2.9146,2.9141,2.9157,2.9146,2.916,2.9165,2.9168,2.9181,2.9208,2.9226,2.9251,2.9315,2.9316,2.9344,2.9354,2.9362,2.9369,2.9402,2.9415,2.928,2.928,2.928,0,0,2.9086,2.9094,2.9115,2.9148,2.9158,2.9191,2.9146,2.9182,2.9206,2.917,2.9217,2.922,2.9233,2.929,2.9315,2.9294,2.9407,2.937,2.9376,2.9378,2.9409,2.9422,2.9433,2.9284,2.9283,2.9283,0,0,2.9171,2.9181,2.9227,2.9238,2.9253,2.9249,2.926,2.927,2.9271,2.9318,2.9291,2.9319,2.9366,2.9376,2.9388,2.9477,2.9455,2.9486,2.9537,2.9569,2.958,2.9589,2.962,2.9632,2.9493,2.9493,2.9493,0,2.9216,2.9265,2.9252,2.9291,2.9305,2.9276,2.9321,2.9332,2.9355,2.9365,2.9342,2.94,2.9407,2.9466,2.9488,2.9498,2.9509,2.9484,2.958,2.9589,2.9597,2.9627,2.9639,2.9496,2.9496,2.9496,2.9495,0,2.9319,2.9353,2.9388,2.9412,2.9431,2.9472,2.9465,2.9485,2.9473,2.9471,2.9518,2.9526,2.9551,2.9564,2.9552,2.9621,2.9608,2.9583,2.9541,2.9614,2.9641,2.9652,2.9501,2.95,2.9499,2.9498,0,0,2.9436,2.9452,2.9465,2.9475,2.9491,2.9516,2.9556,2.9583,2.96,2.9617,2.9649,2.9689,2.9666,2.968,2.9668,2.9697,2.9766,2.9668,2.9668,2.9685,2.9841,2.9859,2.9873,2.9752,2.9754,2.9756,2.984,0,2.952,2.9591,2.958,2.9647,2.9678,2.9651,2.9686,2.9698,2.9697,2.9723,2.9721,2.975,2.9718,2.9726,2.9753,2.9752,2.9797,2.9746,2.9781,2.9782,2.9777,2.9887,2.9906,2.9985,2.9851,2.9852,2.9854,0,2.9628,2.965,2.9721,2.9731,2.9744,2.9775,2.9798,2.9823,2.9836,2.9834,2.9849,2.9832,2.9871,2.983,2.9882,2.9848,2.9861,2.9863,2.9866,2.9867,2.9822,2.9891,3.001,3.0022,2.9871,2.9869,2.9868,0,2.9705,2.9752,2.9801,2.981,2.9824,2.9846,2.9853,2.9864,2.988,2.99,2.991,2.9933,2.9946,2.9964,2.9954,2.9925,3.0008,2.9966,3.0005,3.0006,3.0023,3.0022,3.0145,3.0034,3.0034,3.0033,3.0033,0,2.98,2.9844,2.9835,2.9865,2.9913,2.99,2.9948,2.9951,2.9961,2.999,2.9967,2.9994,2.998,3.0006,2.9998,3.0042,3.0048,3.0046,3.0043,3.0047,3.0048,3.0055,3.0049,3.0037,3.0036,3.0035,3.0035,0,2.9894,2.989,2.9941,2.995,2.9953,2.9988,2.9995,3.0022,3.002,3.0057,3.0064,3.0061,3.009,3.0082,3.0113,3.0108,3.0163,3.0154,3.0159,3.0157,3.0196,3.0192,3.0328,3.0344,3.0223,3.0224,3.0225,0,2.9955,2.9988,3.0001,3.0019,3.0028,3.0057,3.0074,3.0063,3.0081,3.0098,3.0123,3.0151,3.0172,3.022,3.0219,3.0243,3.0233,3.0279,3.0236,3.0239,3.0232,3.023,3.0233,3.0287,3.0288,3.0289,3.029,0,3.0062,3.0058,3.0084,3.0109,3.013,3.0149,3.0166,3.0182,3.0171,3.0192,3.0223,3.0239,3.0272,3.0299,3.0321,3.0326,3.0306,3.0304,3.0314,3.0318,3.032,3.0319,3.0181,3.0301,3.03,3.0299,3.0298,3.0298,3.014,3.0168,3.0182,3.0211,3.0223,3.0239,3.0265,3.0266,3.0292,3.0318,3.0309,3.0344,3.0355,3.0383,3.0391,3.0417,3.0399,3.0414,3.0418,3.0421,3.0426,3.0317,3.0421,3.042,3.042,3.042,3.042,0,3.0245,3.0253,3.028,3.0304,3.0327,3.0309,3.0326,3.0346,3.0377,3.039,3.0412,3.0446,3.0472,3.0474,3.0499,3.0519,3.051,3.0525,3.0523,3.0525,3.0441,3.0429,3.0532,3.0532,3.0532,3.0532,3.0532,3.0532,3.0302,3.0349,3.0347,3.0399,3.0406,3.044,3.0452,3.0466,3.0477,3.0517,3.0539,3.054,3.0549,3.0574,3.0596,3.0596,3.0606,3.0624,3.062,3.0542,3.0531,3.052,3.0509,3.0627,3.0627,3.0702,3.0702,3.0703]}]]